STARLINK-11271, 60915

Orbit data source: Space-Track

STARLINK-11271, 60915 is a payload satellite owned by SpaceX/Seattle (US) in LEO that was launched on Sat, 31 Aug 2024 UTC via an FALCON 9 launch vehicle from the Air Force Eastern Test Range (AFETR). Payload-class satellites include a variety of spacecraft equipped with specific instruments for various scientific and technological missions. These include communications satellites like Starlink; space stations such as the ISS; scientific satellites like the Hubble; Earth observation satellites from companies like Planet Labs, Umbra, and HawkEye 360; GPS; miniature CubeSats for education and research; and military/defense satellites.

Loading next visibility...
Identifier
60915, 2024-154N
Orbit
LEO
Country
Flag of USUS
Related business
Manufacturer
SpaceX/Seattle
Mission
Operational Commercial Communications
Bus & Motor
STARLINK V2MD, Unknown motor
Mass
960 kg wet, ~910 kg dry
Launch date (UTC)
2024-08-31 (2 years ago)
Launch vehicle
FALCON 9
Launch site
Air Force Eastern Test Range (AFETR)
Object type
Payload
Rocket body
Debris
Shape & HBR
Box + 2 Pan, 18.1 m
Radar Cross Section
36.964 m², Large (>1 m²)

Expand to show TLE details & history
Last TLE update: 1 day ago

TLE from 1 day ago
0 STARLINK-11271
1 60915U 24154N   26129.47178429 -.00001441  00000-0 -70404-5 0  9991
2 60915  53.1588 191.4248 0000944  82.1576 277.9549 15.69700019 98051
Epoch: 2026-05-09T11:19Z
TLE epoch observation values (Epoch: 2026-05-09T11:19:22.162Z)
Latitude
-0.00003°
Longitude
154.2937°
Altitude
360.582 km
Speed
7.694 km/s
True Right ascension
12h 45m 41s
True Declination
0° 00' 00"
Sunlit
Object was in full shadow at epoch
Visualization orbit readout
Latitude
Unknown
Longitude
Unknown
Altitude
Unknown
Speed
Unknown
Apparent Right ascension
Unknown
Apparent Declination
Unknown
Sunlit
N/A
Visualization observer readout
Local Sidereal Time
19:51:19
Azimuth
Unknown
Elevation
Unknown
Doppler factor
Unknown
Orbital elements
Apogee altitude
360.652 km
Perigee altitude
359.38 km
Semi-major axis
6,738.153 km
Eccentricity
0.00009
Inclination
53.1588°
RAAN
191.4248°
Arg. of periapsis
82.1576°
True anomaly
277.94419°
Mean anomaly
277.9549°
Eccentric anomaly
277.94954°
Mean motion
3.92403 °/min
Orbital period
91.74 mins
BSTAR
-0.0000070404
Loading maneuver chart data...
Computing Atmospheric mass density...
Loading historical data...
Loading historical data...
Loading historical data...
Loading historical data...
Loading historical data...
Loading historical data...
Loading historical data...

Documentation

Showing up to 5 results
|